Regional Weather Roundup
Issued by NWS Newport/Morehead, NC

Current Version | Previous Version | Graphics & Text | Print | Product List | Glossary Off
Versions: 1 2 3 4 5 6 7 8 9 10 11 12 13 14 15 16 17 18 19 20 21 22 23 24 25 26 27 28 29 30 31 32 33 34 35 36 37 38 39 40 41 42 43 44 45 46 47 48 49 50

000
ASUS42 KMHX 240325
RWRMHX
WEATHER ROUNDUP FOR EASTERN NORTH CAROLINA
NATIONAL WEATHER SERVICE NEWPORT/MOREHEAD CITY NC
1100 PM EDT FRI JUN 23 2017

NOTE: "FAIR" INDICATES FEW OR NO CLOUDS BELOW 12,000 FEET
WITH NO SIGNIFICANT WEATHER AND/OR OBSTRUCTIONS TO VISIBILITY

NCZ015>017-031-032-045>047-102-103-240400-
NORTH COAST

CITY           SKY/WX    TMP DP  RH WIND       PRES   REMARKS
EDENTON        CLEAR     81  76  83 S16       29.91R
ELIZABETH CITY CLEAR     81  77  88 S15G24    29.88R
KITTY HAWK     CLEAR     79  71  76 SW10G17   29.90R
MANTEO         CLEAR     79  72  78 SW20      29.92R

$$

NCZ045>047-081-094-103-104-240400-
CENTRAL COAST

CITY           SKY/WX    TMP DP  RH WIND       PRES   REMARKS
FRISCO         PTCLDY    80  75  84 SW15G25   29.96R

$$

NCZ095-097-098-100-101-240400-
SOUTHERN COAST

CITY           SKY/WX    TMP DP  RH WIND       PRES   REMARKS
BEAUFORT       MOCLDY    81  78  91 SW20G28   29.97R
CEDAR ISLAND   NOT AVBL
JACKSONVILLE   CLEAR     79  72  79 SW10      29.95R
PINEY ISLAND   CLEAR    N/A N/A N/A SW17G28   29.95S
WILMINGTON     CLEAR     80  73  79 S17G28    29.96S


$$

NCZ011>013-027>030-043-044-078>080-089-090>093-098-240400-
COASTAL PLAIN

CITY           SKY/WX    TMP DP  RH WIND       PRES   REMARKS
AHOSKIE          N/A     79  74  84 S13       29.86S
CLINTON        CLEAR     79  77  94 S6        29.94S
ELIZABETHTOWN  NOT AVBL
GOLDSBORO      CLEAR     80  80 100 S13G18    29.90R
GREENVILLE     CLEAR     81  73  78 S16G22    29.93S
HAVELOCK       PTCLDY    80  74  81 SW15G32   29.96R
KENANSVILLE    CLEAR     79  73  83 SW3       29.94R
KINSTON        CLEAR     80  72  76 S12G21    29.94R
NEW BERN       CLEAR     79  72  79 SW12G25   29.95S
RICHLANDS      CLEAR     78  71  79 S13       29.95R
ROCKY MOUNT    CLEAR     81  77  88 S9        29.87S
WASHINGTON     CLEAR    N/A N/A N/A S10G16    29.92R
WHITEVILLE     CLEAR     79  73  83 S10       29.96R

$$

AMZ130-135-150-152-154-156-158-170-250-252-270-ANZ085-086-088-633-658-670-240400-
MARINE OBSERVATIONS

STATION/POSITION TIME  TEMP    WIND        PRES    WAVE   SWELL
                       AIR SEA DIR/SP/G            HT/PER HT/PER
                 (UTC) (F)     (DEG/KT/KT) (MB)    (FT/S) (FT/S)
CHESAPEAKE LIGHT NOT AVBL
64 E VA BEACH    0250   74 71  210/ 21/ 25 1011.7    6/ 6
DUCK             0300   81 62  200/ 20/ 26 1011.6
2 E DUCK         NOT AVBL
OREGON INLET     0300   81 82  210/ 22/ 29 1013.1
13E OREGON INLT  0248      71                N/A     5/ 6   2/ 9
HATTERAS CG      0300   79 80  220/ 16/ 21 1014.2
DIAMOND BUOY     0250   81 80  220/ 23/ 27 1014.2    6/ 6
CAPE LOOKOUT     0300   80     210/ 15/ 22 1014.6
BEAUFORT LAB     0300   80 78  210/ 14/ 18 1014.2
30 SE NEW RVR IN 0308   80 81  220/ 19/ 27 1015.2
30 SE NEW RVR IN 0313      81                N/A     6/ 6   2/11
27 SE WRIGHTSVLE 0308   79 80  200/ 19/ 27 1014.5
5 SE WRIGHTSVLE  0308   80 79  200/ 12/ 23 1015.1
225 S CAPE HAT   0250   81 81  190/ 14/ 16 1019.0    4/ 8   3/ 8
41 SE CHARLESTON 0310   81 81  200/ 17/ 23 1016.3

$$




USA.gov is the U.S. government's official web portal to all federal, state and local government web resources and services.